Time,TemperatureF,DewpointF,PressureIn,WindDirection,WindDirectionDegrees,WindSpeedMPH,WindSpeedGustMPH,Humidity,HourlyPrecipIn,Conditions,Clouds,dailyrainin,SoftwareType,DateUTC
2013-10-12 00:10:00,66.0,53.9,29.95,South,180,9.0,9.0,65,0.00,CLR,CLR,0.00,WeatherDisplay:10.37,2013-10-12 05:10:00,
2013-10-12 00:40:00,66.9,53.9,29.94,South,170,13.0,13.0,63,0.00,CLR,CLR,0.00,WeatherDisplay:10.37,2013-10-12 05:40:00,
2013-10-12 01:10:00,66.9,53.9,29.94,South,170,13.0,13.0,63,0.00,CLR,CLR,0.00,WeatherDisplay:10.37,2013-10-12 06:10:00,
2013-10-12 01:40:00,64.9,54.9,29.95,South,180,9.0,9.0,70,0.00,CLR,CLR,0.00,WeatherDisplay:10.37,2013-10-12 06:40:00,
2013-10-12 02:10:00,64.9,54.9,29.95,South,180,9.0,9.0,70,0.00,CLR,CLR,0.00,WeatherDisplay:10.37,2013-10-12 07:10:00,
2013-10-12 02:40:00,64.0,54.8,29.95,South,180,9.0,9.0,72,0.00,CLR,CLR,0.00,WeatherDisplay:10.37,2013-10-12 07:40:00,
2013-10-12 03:10:00,64.0,54.8,29.95,South,180,9.0,9.0,72,0.00,CLR,CLR,0.00,WeatherDisplay:10.37,2013-10-12 08:10:00,
2013-10-12 03:40:00,64.0,54.8,29.95,South,180,9.0,9.0,72,0.00,OVC,OVC,0.00,WeatherDisplay:10.37,2013-10-12 08:40:00,
2013-10-12 04:10:00,64.0,54.8,29.95,South,180,9.0,9.0,72,0.00,OVC,OVC,0.00,WeatherDisplay:10.37,2013-10-12 09:10:00,
2013-10-12 04:40:00,63.0,55.6,29.95,South,170,7.0,7.0,77,0.00,BKN,BKN,0.00,WeatherDisplay:10.37,2013-10-12 09:40:00,
2013-10-12 05:10:00,63.0,55.6,29.95,South,170,7.0,7.0,77,0.00,BKN,BKN,0.00,WeatherDisplay:10.37,2013-10-12 10:10:00,
2013-10-12 05:40:00,64.9,55.7,29.94,South,170,8.0,8.0,72,0.00,OVC,OVC,0.00,WeatherDisplay:10.37,2013-10-12 10:40:00,
2013-10-12 06:10:00,64.9,55.7,29.94,South,170,8.0,8.0,72,0.00,OVC,OVC,0.00,WeatherDisplay:10.37,2013-10-12 11:10:00,
2013-10-12 06:40:00,62.1,57.8,29.96,SSE,160,7.0,8.0,86,0.00,OVC,OVC,0.08,WeatherDisplay:10.37,2013-10-12 11:40:00,
2013-10-12 07:10:00,62.1,57.8,29.95,SSE,160,7.0,7.0,86,0.37,OVC,OVC,0.45,WeatherDisplay:10.37,2013-10-12 12:10:00,
2013-10-12 07:40:00,62.1,57.8,29.95,South,170,6.0,6.0,86,0.00,-RA,-RA,0.45,WeatherDisplay:10.37,2013-10-12 12:40:00,
2013-10-12 08:10:00,62.1,57.8,29.95,South,170,6.0,6.0,86,0.37,-RA,-RA,0.82,WeatherDisplay:10.37,2013-10-12 13:10:00,
2013-10-12 08:40:00,62.1,57.8,29.97,South,190,6.0,6.0,86,0.00,SCT,SCT,0.82,WeatherDisplay:10.37,2013-10-12 13:40:00,
2013-10-12 09:10:00,63.0,58.7,29.98,South,180,8.0,8.0,86,0.00,FEW,FEW,0.82,WeatherDisplay:10.37,2013-10-12 14:10:00,
2013-10-12 09:40:00,64.9,60.0,29.98,South,180,8.0,8.0,84,0.00,CLR,CLR,0.82,WeatherDisplay:10.37,2013-10-12 14:40:00,
2013-10-12 10:10:00,64.9,60.0,29.98,South,180,8.0,8.0,84,0.00,CLR,CLR,0.82,WeatherDisplay:10.37,2013-10-12 15:10:00,
2013-10-12 10:40:00,66.9,60.9,30.01,SSW,210,10.0,10.0,81,0.00,BKN,BKN,0.82,WeatherDisplay:10.37,2013-10-12 15:40:00,
2013-10-12 11:10:00,66.9,60.9,30.01,SSW,210,10.0,10.0,81,0.00,BKN,BKN,0.82,WeatherDisplay:10.37,2013-10-12 16:10:00,
2013-10-12 11:40:00,66.9,60.9,30.01,SW,220,7.0,7.0,81,0.00,OVC,OVC,0.82,WeatherDisplay:10.37,2013-10-12 16:40:00,
2013-10-12 12:10:00,68.0,60.9,30.02,SW,230,6.0,6.0,78,0.00,OVC,OVC,0.82,WeatherDisplay:10.37,2013-10-12 17:10:00,
2013-10-12 12:40:00,66.9,60.9,30.02,WSW,240,7.0,7.0,81,0.00,OVC,OVC,0.82,WeatherDisplay:10.37,2013-10-12 17:40:00,
2013-10-12 13:10:00,66.9,60.9,30.02,WSW,240,7.0,7.0,81,0.00,OVC,OVC,0.82,WeatherDisplay:10.37,2013-10-12 18:10:00,
2013-10-12 13:40:00,68.0,59.8,30.03,West,270,8.0,8.0,75,0.00,OVC,OVC,0.82,WeatherDisplay:10.37,2013-10-12 18:40:00,
2013-10-12 14:10:00,68.0,57.0,30.04,West,280,9.0,9.0,68,0.00,BKN,BKN,0.82,WeatherDisplay:10.37,2013-10-12 19:10:00,
2013-10-12 14:40:00,68.0,56.6,30.04,WNW,290,12.0,12.0,67,0.00,BKN,BKN,0.82,WeatherDisplay:10.37,2013-10-12 19:40:00,
2013-10-12 15:10:00,68.0,56.6,30.04,WNW,290,12.0,12.0,67,0.00,BKN,BKN,0.82,WeatherDisplay:10.37,2013-10-12 20:10:00,
2013-10-12 15:41:00,71.1,50.9,30.04,NW,310,12.0,12.0,49,0.00,CLR,CLR,0.82,WeatherDisplay:10.37,2013-10-12 20:41:00,
2013-10-12 16:10:00,71.1,50.9,30.04,NW,310,12.0,12.0,49,0.00,CLR,CLR,0.82,WeatherDisplay:10.37,2013-10-12 21:10:00,
2013-10-12 16:41:00,72.0,45.6,30.05,West,280,9.0,9.0,39,0.00,CLR,CLR,0.82,WeatherDisplay:10.37,2013-10-12 21:41:00,
2013-10-12 17:11:00,72.0,45.6,30.05,West,280,9.0,9.0,39,0.00,CLR,CLR,0.82,WeatherDisplay:10.37,2013-10-12 22:11:00,
2013-10-12 17:40:00,72.0,39.7,30.07,WNW,290,6.0,6.0,31,0.00,CLR,CLR,0.82,WeatherDisplay:10.37,2013-10-12 22:40:00,
2013-10-12 18:11:00,72.0,39.7,30.07,WNW,290,6.0,6.0,31,0.00,CLR,CLR,0.82,WeatherDisplay:10.37,2013-10-12 23:11:00,
2013-10-12 18:41:00,69.1,40.3,30.08,NW,310,6.0,6.0,35,0.00,CLR,CLR,0.82,WeatherDisplay:10.37,2013-10-12 23:41:00,
2013-10-12 19:11:00,69.1,40.3,30.08,NW,310,6.0,6.0,35,0.00,CLR,CLR,0.82,WeatherDisplay:10.37,2013-10-13 00:11:00,
2013-10-12 19:40:00,63.0,40.7,30.10,NW,310,5.0,5.0,44,0.00,CLR,CLR,0.82,WeatherDisplay:10.37,2013-10-13 00:40:00,
2013-10-12 20:10:00,63.0,40.7,30.10,NW,310,5.0,5.0,44,0.00,CLR,CLR,0.82,WeatherDisplay:10.37,2013-10-13 01:10:00,
2013-10-12 20:41:00,61.0,39.5,30.13,NW,320,5.0,5.0,45,0.00,CLR,CLR,0.82,WeatherDisplay:10.37,2013-10-13 01:41:00,
2013-10-12 21:11:00,61.0,39.5,30.13,NW,320,5.0,5.0,45,0.00,CLR,CLR,0.82,WeatherDisplay:10.37,2013-10-13 02:11:00,
2013-10-12 21:41:00,59.0,38.8,30.15,NW,320,5.0,5.0,47,0.00,CLR,CLR,0.82,WeatherDisplay:10.37,2013-10-13 02:41:00,
2013-10-12 22:10:00,59.0,38.8,30.15,NW,320,5.0,5.0,47,0.00,CLR,CLR,0.82,WeatherDisplay:10.37,2013-10-13 03:10:00,
2013-10-12 22:41:00,57.0,37.5,30.18,NNW,330,3.0,3.0,48,0.00,CLR,CLR,0.82,WeatherDisplay:10.37,2013-10-13 03:41:00,
2013-10-12 23:11:00,57.0,37.5,30.18,NNW,330,3.0,3.0,48,0.00,CLR,CLR,0.82,WeatherDisplay:10.37,2013-10-13 04:11:00,
2013-10-12 23:41:00,55.0,38.7,30.19,NW,320,5.0,5.0,54,0.00,CLR,CLR,0.82,WeatherDisplay:10.37,2013-10-13 04:41:00,